#timestamp,LO_Frequency,Hit,StdDev 
1566216015.1,286047001.1,N
1566216035.9,286046999.3,N
1566216055.7,286046997.3,N
1566216075.5,286046997.1,N
1566216095.4,286046999.3,N
1566216115.2,286046998.4,N
1566216135.0,286046999.1,N
1566216135.9,286046999.1,N
1566216155.8,286046998.9,N
1566216175.6,286046998.8,N
1566216195.5,286046998.3,N
1566216215.3,286046996.9,N
1566216235.1,286046997.1,N
1566216255.9,286046996.5,N
1566216275.7,286046999.0,N
1566216295.6,286046999.0,N
1566216315.4,286046999.0,N
1566216335.2,286046999.5,N
1566216355.1,286046999.0,N
1566216356.0,286046999.0,N
1566216375.8,286046999.5,N
1566216395.7,286046999.3,N
1566216415.5,286046996.6,Y
1566216435.3,286047001.1,P
1566216455.2,286047000.3,N
1566216475.0,286046999.9,N
1566216475.9,286046999.9,N
1566216495.7,286047002.2,N
1566216515.6,286046999.8,N
1566216535.4,286046999.9,N
1566216555.3,286047000.2,N
1566216575.1,286046999.8,N
1566216595.8,286047002.5,N
1566216615.7,286047002.3,N
1566216635.5,286047002.5,N
1566216655.4,286047004.4,Y
1566216675.2,286047000.2,P
1566216695.0,286047002.1,P
1566216695.9,286047002.1,N
1566216715.8,286047002.8,Y
1566216735.6,286047001.0,P
1566216755.5,286046998.7,P
1566216775.3,286046999.2,N
1566216795.1,286046996.9,N
1566216815.9,286046998.9,N
1566216835.7,286046996.5,N
1566216855.5,286046999.6,N
1566216875.4,286046998.9,N
1566216895.2,286047000.7,N
1566216915.1,286047001.1,N
1566216916.0,286047001.1,N
1566216935.8,286047000.4,N
1566216955.7,286047001.2,N
1566216975.5,286046998.9,N
1566216995.3,286046998.6,N
1566217015.2,286046998.6,N
1566217035.9,286047000.5,N
1566217055.7,286047001.2,N
1566217075.6,286046998.9,N
1566217095.4,286047001.2,N
1566217115.3,286047001.0,N
1566217135.1,286046998.2,N
1566217136.0,286046998.2,N
1566217155.8,286046998.8,N
1566217175.7,286046998.1,N
1566217195.5,286046998.7,N
1566217215.3,286046998.1,N
1566217235.2,286046998.2,N
1566217255.0,286047001.2,N
1566217255.9,286047001.2,N
1566217275.8,286046998.5,N
1566217295.6,286046998.2,N
1566217315.4,286046998.1,N
1566217335.3,286046998.3,N
1566217355.1,286047000.8,N
1566217375.9,286046999.7,N
1566217395.7,286047000.0,N
1566217415.5,286047001.1,N
1566217435.4,286047000.8,N
1566217455.2,286047002.8,N
1566217475.0,286047000.4,N
1566217475.9,286047000.4,N
1566217495.8,286046998.3,N
1566217515.6,286046998.1,N
1566217535.5,286046998.8,N
1566217555.3,286046999.1,N
1566217575.1,286047000.7,N
1566217595.9,286046998.3,N
1566217615.7,286047000.0,N
1566217635.6,286046999.8,N
1566217655.4,286047002.7,N
1566217675.2,286047000.0,N
1566217695.1,286047001.0,N
1566217696.0,286047001.0,N
1566217715.8,286046998.4,N
1566217735.7,286046998.1,N
1566217755.5,286046998.5,N
1566217775.3,286046998.2,N
1566217795.2,286047002.8,N
1566217815.0,286046999.7,N
1566217815.9,286046999.7,N
1566217835.7,286047000.6,N
1566217855.6,286047000.8,N
1566217875.4,286046998.6,N
1566217895.3,286047001.1,N
1566217915.1,286047000.3,N
1566217935.8,286047000.7,N
1566217955.7,286047000.0,N
1566217975.5,286047000.9,N
1566217995.4,286047000.3,N
1566218015.2,286047002.5,N
1566218035.0,286047002.8,N
1566218035.9,286047002.8,N
1566218055.8,286047002.4,N
1566218075.6,286047003.9,N
1566218095.4,286047002.8,N
1566218115.3,286047000.9,N
1566218135.1,286047002.6,N
1566218155.9,286047002.4,N
1566218175.7,286047002.1,N
1566218195.5,286047004.3,N
1566218215.4,286047001.7,N
1566218235.2,286047002.6,N
1566218255.1,286046999.9,N
1566218256.0,286046999.9,N
1566218275.8,286047002.7,N
1566218295.6,286047001.5,N
1566218315.5,286047001.6,N
1566218335.3,286047006.0,Y
1566218355.2,286047001.3,P
1566218375.9,286047003.7,P
1566218395.7,286047004.0,P
1566218415.6,286047004.1,Y
1566218435.4,286047000.1,P
1566218455.2,286046999.9,N
1566218475.1,286047000.6,N
1566218476.0,286047000.6,N
1566218495.8,286047000.3,N
1566218515.7,286047000.7,N
1566218535.5,286047000.8,N
1566218555.3,286046999.9,N
1566218575.2,286046999.9,N
1566218595.0,286047000.1,N
1566218595.9,286047000.1,N
1566218615.8,286046999.8,N
1566218635.6,286047000.8,N
1566218655.4,286046998.1,N
1566218675.3,286046998.9,N
1566218695.1,286046999.0,N
1566218715.8,286046998.9,N
1566218735.7,286046998.5,N
1566218755.5,286046999.3,N
1566218775.4,286046999.5,N
1566218795.2,286046997.0,Y
1566218815.0,286046996.9,P
1566218815.9,286046996.9,N
1566218835.8,286046997.1,N
1566218855.6,286046996.9,N
1566218875.5,286046996.7,N
1566218895.3,286046996.9,N
1566218915.1,286046997.1,N
1566218935.9,286046997.4,N
1566218955.7,286046997.3,N
1566218975.6,286046997.6,N
1566218995.4,286046995.0,Y
1566219015.2,286046998.2,P
1566219035.1,286046998.6,P
1566219036.0,286046998.6,N
1566219055.8,286046998.4,Y
1566219075.7,286046999.8,P
1566219095.5,286047000.0,N
1566219115.3,286047002.3,N
1566219135.2,286046999.7,N
1566219155.0,286047002.7,N
1566219155.9,286047002.7,N
1566219175.7,286046998.1,N
1566219195.6,286046998.5,N
1566219215.4,286046998.2,N
1566219235.3,286047000.8,N
1566219255.1,286047000.3,N
1566219256.0,286047000.3,N
1566219275.8,286046998.2,N
1566219295.7,286046998.1,N
1566219315.5,286046998.2,N
1566219335.4,286047001.1,N
1566219355.2,286047001.1,N
1566219375.0,286047001.1,N
1566219375.9,286047001.1,N
1566219395.8,286046998.9,N
1566219415.6,286046998.3,N
1566219435.4,286046999.6,N
1566219455.3,286046997.3,N
1566219475.1,286046997.0,N
1566219495.9,286046997.9,N
1566219515.7,286046997.9,N
1566219535.5,286046997.9,N
1566219555.4,286046997.3,N
1566219575.2,286046996.7,N
1566219595.0,286046999.5,N
1566219596.0,286046999.5,N
